[[{"header":{"parameterUnit":"m.s-1","parameterCategory":2,"la1":30.2991,"la2":30.254,"lo1":-89.0895,"lo2":-89.0444,"dy":0.0017,"dx":0.0017,"nx":28,"ny":28,"refTime":"2025-12-23T03:00:00:Z","depth":"0","parameterNumber":2,"parameterNumberName":"U-component_of_CURRENTS"},"data":[0,0,0,0,0,0,0,0,0,0,0,0,0,0,0,0,0,0,0,0,0,0,0,0,0,0,0,0,0,0,0,0,0,0,0,0,0,0,0,0,0,0,0,0,0,0,0,0,0,0,0,0,0,0,0,0,0,0,0.4069,0.4069,0,0.409,0.409,0.409,0.4125,0.4125,0.4125,0.4126,0.4036,0.4033,0.403,0,0,0,0,0,0,0,0,0,0,0,0,0,0.4117,0.4116,0.4069,0.4069,0.4069,0.409,0.409,0.4091,0.4124,0.4125,0.4125,0.4126,0.4036,0.4033,0.403,0,0,0,0,0,0,0,0,0,0,0,0,0,0.4115,0.4116,0.4069,0.4087,0.4088,0.4089,0.409,0.4091,0.4124,0.4125,0.4126,0.4126,0.4038,0.4034,0.4029,0.3993,0,0,0.4017,0.4015,0,0,0,0,0,0,0,0,0.4115,0.4114,0.4084,0.4085,0.4087,0.4103,0.4074,0.4051,0.4124,0.4114,0.4126,0.4126,0.4045,0.4041,0.4049,0.3988,0.3985,0.4017,0.4014,0.4012,0.4011,0,0,0,0,0,0,0,0.4115,0.4114,0.408,0.4084,0.4086,0.4113,0.4113,0.4071,0.4076,0.4115,0.4116,0.4114,0.4046,0.4053,0.4047,0.3983,0.4017,0.4013,0.401,0.4009,0.3931,0.3932,0,0,0,0,0,0,0.4103,0.4113,0.4079,0.408,0.41,0.4111,0.4111,0.4099,0.4079,0.4077,0.4114,0.4115,0.406,0.4051,0.4043,0.4042,0.4012,0.4008,0.4006,0.3931,0.3932,0.3932,0,0,0,0,0,0,0.4104,0.41,0.4079,0.4096,0.4095,0.4109,0.4096,0.4099,0.4105,0.4079,0.4075,0.4115,0.406,0.4049,0.4023,0.4037,0.4007,0.4003,0.3931,0.3931,0.3932,0.401,0,0,0,0,0,0,0.4105,0.41,0.4099,0.4095,0.4093,0.4075,0.4095,0.4099,0.4101,0.4104,0.4078,0.4071,0.4059,0.4029,0.4019,0.4031,0.4,0.393,0.3931,0.3932,0.4007,0.4014,0.4019,0,0,0,0,0,0.4107,0.4102,0.4099,0.4096,0.4087,0.4075,0.4077,0.4091,0.4101,0.41,0.4097,0.4072,0.4027,0.4026,0.4013,0.4025,0.393,0.3931,0.3932,0.4005,0.4012,0.4019,0,0,0,0,0,0,0.411,0.4104,0.4101,0.409,0.408,0.4079,0.4085,0.4086,0.4085,0.409,0.407,0.4062,0.4049,0.4017,0.4017,0.4005,0.3976,0.3974,0.4036,0.4042,0.4048,0.4089,0.3996,0,0,0,0,0,0.411,0.4116,0.4096,0.4089,0.4081,0.408,0.4081,0.4083,0.4077,0.4079,0.4062,0.4047,0.4042,0.4027,0.4008,0.3987,0.4012,0.3988,0.3994,0.3999,0.4023,0.4069,0.4083,0.3935,0.3935,0.3935,0,0,0.4111,0.4108,0.411,0.4092,0.4089,0.4089,0.4083,0.4077,0.4094,0.4063,0.4077,0.4059,0.4041,0.404,0.403,0.4015,0.4058,0.4,0.4005,0.4027,0.4072,0.4087,0.41,0.3936,0.3936,0.3936,0,0,0.4114,0.4105,0.4111,0.4101,0.409,0.4094,0.4088,0.4078,0.4092,0.4092,0.409,0.409,0.4056,0.4068,0.4067,0.4085,0.4088,0.4063,0.4124,0.4168,0.4182,0.4194,0.4269,0.4287,0.4065,0.4066,0.4066,0,0.4115,0.4112,0.4108,0.4104,0.4103,0.4095,0.4094,0.411,0.4098,0.4117,0.4103,0.4111,0.4085,0.4118,0.4138,0.4103,0.4137,0.4102,0.418,0.4192,0.4203,0.4277,0.4296,0.4069,0.4069,0.4069,0.4068,0,0.4122,0.4116,0.4113,0.4118,0.4119,0.411,0.412,0.4133,0.4147,0.4165,0.4192,0.4178,0.4188,0.4178,0.4168,0.4227,0.4232,0.4186,0.4171,0.4224,0.4297,0.4316,0.4075,0.4074,0.4072,0.4071,0,0,0.4098,0.4122,0.411,0.4121,0.4121,0.412,0.4159,0.419,0.4227,0.4236,0.4286,0.4297,0.4294,0.4294,0.4274,0.4316,0.4429,0.4293,0.4293,0.4386,0.4563,0.4488,0.4501,0.4397,0.44,0.4402,0.4593,0,0.4093,0.4112,0.4119,0.4129,0.4134,0.4149,0.4188,0.4222,0.4257,0.4303,0.433,0.4353,0.4337,0.4336,0.4387,0.4413,0.4477,0.4384,0.4482,0.4487,0.4427,0.4519,0.4278,0.4419,0.4611,0.4614,0.4616,0,0.4071,0.4094,0.4114,0.4149,0.415,0.4164,0.4225,0.4254,0.4331,0.4357,0.4408,0.442,0.4499,0.4452,0.4587,0.453,0.4566,0.459,0.4596,0.4514,0.4445,0.439,0.4446,0.4328,0.4645,0.4643,0.4641,0,0.4054,0.4073,0.4103,0.4107,0.4154,0.4175,0.4204,0.4271,0.4316,0.4386,0.4441,0.4512,0.4578,0.4626,0.4701,0.4647,0.4854,0.477,0.4751,0.4747,0.4556,0.4529,0.4519,0.4872,0.4871,0.4871,0.487,0,0.4034,0.4046,0.4098,0.4107,0.4143,0.4169,0.4215,0.4261,0.4338,0.4401,0.4464,0.4541,0.4629,0.4748,0.4763,0.485,0.4913,0.4804,0.4796,0.4576,0.455,0.4445,0.4404,0.4878,0.4877,0.4875,0.4874,0,0.3999,0.4039,0.4064,0.4116,0.4133,0.4153,0.4217,0.425,0.4341,0.4431,0.446,0.4625,0.4763,0.4861,0.4976,0.4952,0.4859,0.5008,0.4767,0.4725,0.4518,0.449,0.4373,0.4246,0.4996,0.4995,0.4995,0,0.3987,0.3995,0.4054,0.4064,0.4082,0.4119,0.4142,0.4231,0.4273,0.447,0.4514,0.4708,0.4799,0.4986,0.4969,0.5015,0.4868,0.4814,0.4637,0.4514,0.4479,0.4322,0.4212,0.4438,0.4433,0.4429,0.4425,0,0.3932,0.3954,0.3978,0.4013,0.4035,0.4069,0.4115,0.4163,0.4277,0.4373,0.4516,0.461,0.4798,0.4736,0.4821,0.4799,0.4548,0.4727,0.4645,0.4095,0.3878,0.3748,0.4347,0.4388,0.4392,0.4395,0.4397,0.4398,0.3866,0.3876,0.3904,0.3927,0.3959,0.399,0.3974,0.4051,0.4122,0.4212,0.4403,0.4453,0.4493,0.4555,0.4534,0.4316,0.4332,0.4118,0.4123,0.4,0.3765,0.4311,0.4298,0.4301,0.4304,0.4306,0.4308,0,0.376,0.3786,0.3806,0.3823,0.3809,0.3875,0.3917,0.3872,0.3892,0.4033,0.4114,0.4081,0.4034,0.4035,0.388,0.3716,0.3552,0.3611,0.3321,0.3264,0.3788,0.3647,0.3433,0.3433,0.3433,0.3434,0.3434,0.3434,0.3694,0.3683,0.3708,0.3654,0.3662,0.3582,0.3577,0.3559,0.3605,0.3556,0.3502,0.3553,0.3613,0.3591,0.3387,0.3295,0.305,0.2897,0.2963,0.332,0.3365,0.3409,0.3265,0.2975,0.2974,0.2234,0.2229,0.2225]},{"header":{"parameterUnit":"m.s-1","parameterCategory":2,"la1":30.2991,"la2":30.254,"lo1":-89.0895,"lo2":-89.0444,"dy":0.0017,"dx":0.0017,"nx":28,"ny":28,"refTime":"2025-12-23T03:00:00:Z","depth":"0","parameterNumber":3,"parameterNumberName":"V-component_of_CURRENTS"},"data":[0,0,0,0,0,0,0,0,0,0,0,0,0,0,0,0,0,0,0,0,0,0,0,0,0,0,0,0,0,0,0,0,0,0,0,0,0,0,0,0,0,0,0,0,0,0,0,0,0,0,0,0,0,0,0,0,0,0,-0.0326,-0.0326,0,-0.0369,-0.037,-0.0371,-0.0458,-0.0459,-0.046,-0.0462,-0.0502,-0.0502,-0.0502,0,0,0,0,0,0,0,0,0,0,0,0,0,-0.0353,-0.0353,-0.0326,-0.0326,-0.0326,-0.0369,-0.037,-0.0371,-0.0458,-0.0459,-0.0461,-0.0462,-0.0502,-0.0502,-0.0502,0,0,0,0,0,0,0,0,0,0,0,0,0,-0.0368,-0.0353,-0.0326,-0.037,-0.0375,-0.0368,-0.037,-0.0371,-0.0457,-0.0459,-0.0461,-0.0463,-0.0502,-0.0502,-0.0502,-0.0464,0,0,-0.0502,-0.0502,0,0,0,0,0,0,0,0,-0.0367,-0.0368,-0.0364,-0.0367,-0.0372,-0.0405,-0.0394,-0.04,-0.0457,-0.0432,-0.0462,-0.0464,-0.0464,-0.0468,-0.0479,-0.0466,-0.0468,-0.0502,-0.0502,-0.0501,-0.0501,0,0,0,0,0,0,0,-0.0366,-0.0367,-0.0348,-0.0364,-0.0368,-0.04,-0.0404,-0.0396,-0.0441,-0.0434,-0.0439,-0.0435,-0.0468,-0.0479,-0.0481,-0.0468,-0.0502,-0.0502,-0.0501,-0.0501,-0.0467,-0.0466,0,0,0,0,0,0,-0.0346,-0.0365,-0.0347,-0.0349,-0.0368,-0.0397,-0.0402,-0.0397,-0.0442,-0.0449,-0.0433,-0.0438,-0.0479,-0.0481,-0.0482,-0.0455,-0.0502,-0.0501,-0.0501,-0.0468,-0.0467,-0.0466,0,0,0,0,0,0,-0.0346,-0.0344,-0.0345,-0.0354,-0.0356,-0.0394,-0.0388,-0.0397,-0.0406,-0.044,-0.0449,-0.0432,-0.048,-0.0483,-0.0483,-0.0457,-0.0501,-0.0501,-0.0469,-0.0468,-0.0467,-0.0391,0,0,0,0,0,0,-0.0347,-0.0344,-0.0338,-0.0352,-0.0354,-0.0328,-0.0385,-0.0396,-0.0397,-0.0405,-0.0441,-0.0447,-0.0482,-0.0483,-0.0482,-0.0458,-0.0501,-0.047,-0.0469,-0.0467,-0.0394,-0.0387,-0.0381,0,0,0,0,0,-0.0348,-0.0328,-0.0337,-0.0335,-0.0344,-0.0326,-0.033,-0.0368,-0.0395,-0.0386,-0.0424,-0.0446,-0.0473,-0.0481,-0.0482,-0.0456,-0.0471,-0.0469,-0.0467,-0.0397,-0.0388,-0.0381,0,0,0,0,0,0,-0.0329,-0.0334,-0.0346,-0.0327,-0.0319,-0.0339,-0.0334,-0.0352,-0.0374,-0.0387,-0.043,-0.0437,-0.0429,-0.0449,-0.0457,-0.0444,-0.0476,-0.0474,-0.0423,-0.0415,-0.0408,-0.0399,-0.0501,0,0,0,0,0,-0.0319,-0.0316,-0.0311,-0.0295,-0.0286,-0.0305,-0.0305,-0.0322,-0.0339,-0.0352,-0.0378,-0.0406,-0.0419,-0.0423,-0.0438,-0.0418,-0.0419,-0.0405,-0.0398,-0.0392,-0.0385,-0.0375,-0.0366,-0.046,-0.046,-0.046,0,0,-0.0309,-0.0309,-0.0308,-0.0292,-0.0295,-0.0269,-0.0311,-0.0296,-0.0286,-0.0348,-0.0347,-0.0376,-0.0409,-0.0403,-0.04,-0.0417,-0.036,-0.039,-0.0384,-0.0381,-0.0372,-0.0363,-0.0354,-0.0459,-0.0459,-0.0459,0,0,-0.0274,-0.028,-0.0259,-0.0245,-0.0231,-0.0239,-0.0225,-0.0231,-0.0246,-0.024,-0.0289,-0.0303,-0.0318,-0.0343,-0.0356,-0.0313,-0.0324,-0.0315,-0.0271,-0.026,-0.0252,-0.0245,-0.0206,-0.0197,-0.0312,-0.0312,-0.0312,0,-0.0257,-0.0234,-0.0247,-0.0212,-0.0196,-0.0217,-0.0177,-0.0185,-0.0196,-0.0195,-0.0231,-0.0259,-0.0291,-0.0282,-0.0286,-0.0296,-0.0284,-0.0298,-0.025,-0.0244,-0.0238,-0.02,-0.019,-0.0308,-0.0309,-0.0309,-0.031,0,-0.0204,-0.0181,-0.016,-0.0134,-0.0114,-0.0084,-0.0082,-0.0075,-0.0098,-0.0111,-0.011,-0.0161,-0.0181,-0.0192,-0.0233,-0.0203,-0.0204,-0.0241,-0.0267,-0.0223,-0.0186,-0.0177,-0.0303,-0.0304,-0.0305,-0.0306,0,0,-0.0164,-0.0134,-0.012,-0.0098,-0.0071,-0.0045,-0.0018,0.0004,0.0028,-0.0005,0.002,-0.0031,-0.0064,-0.0082,-0.0125,-0.0129,-0.0082,-0.0167,-0.0168,-0.0121,-0.003,-0.0039,-0.003,-0.011,-0.0109,-0.0108,-0.001,0,-0.0113,-0.0051,-0.0044,0.0023,0.0056,0.0056,0.0088,0.0103,0.0095,0.0114,0.0062,0.0061,-0.0018,-0.0028,-0.0042,-0.0072,-0.006,-0.0103,-0.0087,-0.0085,-0.0094,-0.0021,-0.0026,0.0059,-0.0001,0.0,0.0001,0,-0.0053,-0.0023,0.0042,0.0094,0.0114,0.0149,0.0199,0.0225,0.0241,0.0233,0.0218,0.0181,0.0167,0.0088,0.0074,0.0051,0.0018,-0.0009,-0.0006,-0.0038,-0.0079,-0.0002,0.0076,-0.0101,0.0014,0.0013,0.0012,0,-0.0026,0.0045,0.0089,0.011,0.0165,0.0197,0.0225,0.0259,0.03,0.0308,0.0342,0.0304,0.0313,0.0248,0.0183,0.0132,0.0186,0.0108,0.0081,0.0081,0.0068,0.0064,-0.0021,0.011,0.011,0.011,0.011,0,0.0018,0.006,0.0105,0.0133,0.0207,0.0233,0.0313,0.033,0.0385,0.0469,0.0401,0.047,0.0353,0.0362,0.0259,0.0224,0.0251,0.0115,0.0108,0.0096,0.0094,-0.0072,-0.0186,0.0114,0.0113,0.0112,0.0111,0,0.0036,0.0058,0.0123,0.0192,0.0217,0.027,0.0369,0.0435,0.0471,0.0583,0.0593,0.0623,0.0647,0.055,0.0492,0.0358,0.0198,0.0272,0.0281,0.0271,0.0025,-0.0083,-0.0161,-0.0242,0.0243,0.0243,0.0244,0,0.0044,0.0079,0.0167,0.0219,0.0251,0.0332,0.0402,0.0459,0.0547,0.0698,0.0771,0.0834,0.0933,0.0849,0.0631,0.0491,0.029,0.0337,0.0209,0.0035,-0.0091,-0.0178,-0.0248,0.0242,0.0242,0.0242,0.0242,0,0.0084,0.0115,0.0175,0.0275,0.0353,0.0451,0.0557,0.0644,0.0755,0.089,0.1098,0.1199,0.1136,0.1024,0.0789,0.0632,0.0182,0.0335,0.015,-0.0096,-0.0191,-0.0279,0.0168,0.0245,0.0244,0.0244,0.0244,0.0244,0.0129,0.0182,0.0269,0.0367,0.0458,0.0589,0.0704,0.085,0.1042,0.1309,0.1367,0.161,0.1338,0.1041,0.0784,0.0251,0.0238,0.0061,-0.0045,-0.0109,-0.0233,0.023,0.0285,0.0285,0.0285,0.0285,0.0285,0,0.0209,0.0269,0.0363,0.0501,0.0624,0.0648,0.0837,0.0987,0.1261,0.1546,0.1777,0.1826,0.1464,0.1026,0.0313,-0.0064,-0.0237,-0.0285,-0.0432,-0.048,-0.0058,-0.0109,-0.0132,-0.0132,-0.0132,-0.0132,-0.0131,-0.0131,0.0264,0.0369,0.0417,0.0632,0.0734,0.0926,0.1049,0.1271,0.1511,0.1901,0.2124,0.226,0.1887,0.0599,-0.026,-0.046,-0.076,-0.0805,-0.0938,-0.0692,-0.0669,-0.0647,-0.0722,-0.0874,-0.0875,-0.1324,-0.1329,-0.1332]}],[{"header":{"parameterUnit":"m.s-1","parameterCategory":2,"la1":30.2991,"la2":30.254,"lo1":-89.0895,"lo2":-89.0444,"dy":0.0017,"dx":0.0017,"nx":28,"ny":28,"refTime":"2025-12-23T03:00:00:Z","depth":"2","parameterNumber":2,"parameterNumberName":"U-component_of_CURRENTS"},"data":[0,0,0,0,0,0,0,0,0,0,0,0,0,0,0,0,0,0,0,0,0,0,0,0,0,0,0,0,0,0,0,0,0,0,0,0,0,0,0,0,0,0,0,0,0,0,0,0,0,0,0,0,0,0,0,0,0,0,0.2575,0.2576,0,0.2619,0.2619,0.2619,0.2633,0.2633,0.2633,0.2633,0.2625,0.2625,0.2625,0,0,0,0,0,0,0,0,0,0,0,0,0,0.2529,0.2529,0.2575,0.2576,0.2577,0.2619,0.2619,0.2619,0.2633,0.2633,0.2633,0.2633,0.2625,0.2625,0.2625,0,0,0,0,0,0,0,0,0,0,0,0,0,0.2555,0.2529,0.2575,0.2591,0.2593,0.2619,0.2619,0.2619,0.2633,0.2633,0.2633,0.2633,0.2626,0.2625,0.2625,0.262,0,0,0.2624,0.2623,0,0,0,0,0,0,0,0,0.2554,0.2556,0.2588,0.259,0.2592,0.2623,0.26,0.2618,0.2633,0.2614,0.2633,0.2633,0.2622,0.2622,0.2626,0.262,0.2619,0.2623,0.2623,0.2623,0.2623,0,0,0,0,0,0,0,0.2552,0.2555,0.2589,0.2589,0.2591,0.2605,0.2608,0.2604,0.2613,0.2616,0.2618,0.2628,0.2622,0.2626,0.2626,0.2619,0.2623,0.2623,0.2623,0.2623,0.2683,0.2685,0,0,0,0,0,0,0.2551,0.2553,0.2588,0.2591,0.2576,0.2606,0.2609,0.261,0.2615,0.2617,0.2627,0.2628,0.2627,0.2626,0.2625,0.2666,0.2623,0.2623,0.2622,0.2682,0.2684,0.2686,0,0,0,0,0,0,0.255,0.2554,0.2586,0.2576,0.2581,0.2606,0.2608,0.2611,0.2622,0.2625,0.2625,0.2636,0.2627,0.2626,0.2644,0.2664,0.2622,0.2622,0.2679,0.2682,0.2685,0.2717,0,0,0,0,0,0,0.2548,0.2552,0.2567,0.2575,0.2582,0.2607,0.2608,0.2612,0.263,0.2631,0.2632,0.2631,0.2627,0.2645,0.2644,0.2662,0.2622,0.2677,0.2681,0.2684,0.2713,0.272,0.2726,0,0,0,0,0,0.2546,0.2559,0.2567,0.2572,0.2596,0.2608,0.2612,0.2628,0.263,0.2637,0.265,0.2631,0.2667,0.2646,0.2644,0.2663,0.2675,0.268,0.2684,0.271,0.2719,0.2726,0,0,0,0,0,0,0.2548,0.2562,0.2571,0.2588,0.2602,0.2611,0.2628,0.2632,0.2647,0.2659,0.2647,0.2647,0.2675,0.2668,0.2646,0.2696,0.2671,0.2675,0.2692,0.27,0.2706,0.2725,0.2621,0,0,0,0,0,0.2555,0.2564,0.258,0.2594,0.2603,0.2615,0.2627,0.2642,0.2653,0.266,0.2666,0.2679,0.269,0.2694,0.2707,0.2722,0.2745,0.2739,0.2746,0.2751,0.2768,0.2822,0.2834,0.27,0.27,0.27,0,0,0.2556,0.2569,0.2573,0.2595,0.2607,0.2622,0.2622,0.2648,0.2669,0.2657,0.2691,0.2701,0.2701,0.2731,0.2742,0.2726,0.2803,0.2756,0.276,0.2775,0.2828,0.2841,0.2852,0.2702,0.2702,0.2702,0,0,0.2561,0.2577,0.2587,0.26,0.2633,0.2643,0.2649,0.2675,0.2696,0.2725,0.2732,0.276,0.2766,0.2783,0.2785,0.2834,0.2838,0.2838,0.2878,0.293,0.2941,0.2951,0.3001,0.3016,0.2838,0.2838,0.2838,0,0.2572,0.2579,0.2593,0.261,0.2626,0.2647,0.2666,0.2688,0.2722,0.2747,0.2743,0.2796,0.2792,0.283,0.2855,0.2847,0.2882,0.2841,0.2937,0.2948,0.2958,0.3006,0.3022,0.284,0.284,0.2839,0.2839,0,0.2576,0.2593,0.26,0.2624,0.2645,0.2665,0.2698,0.274,0.2765,0.2783,0.2841,0.2857,0.2889,0.2892,0.2884,0.2956,0.296,0.2939,0.2913,0.2973,0.3021,0.3036,0.2843,0.2842,0.2841,0.2841,0,0,0.2576,0.2599,0.2603,0.262,0.2658,0.2676,0.2727,0.2773,0.2815,0.2855,0.291,0.2936,0.2958,0.2966,0.2973,0.3018,0.311,0.3015,0.3017,0.3057,0.3239,0.3163,0.3172,0.3109,0.3112,0.3114,0.3245,0,0.2579,0.2602,0.2619,0.2648,0.2663,0.2711,0.2743,0.2797,0.285,0.2914,0.2951,0.2999,0.2979,0.3013,0.3055,0.3107,0.3154,0.3078,0.3182,0.3186,0.3104,0.3188,0.2922,0.301,0.326,0.3263,0.3264,0,0.2571,0.2594,0.2614,0.2662,0.2674,0.2701,0.2788,0.2836,0.2925,0.2971,0.304,0.3065,0.3149,0.312,0.3239,0.3197,0.3228,0.3256,0.3261,0.3192,0.3139,0.2991,0.3028,0.329,0.3288,0.3286,0.3285,0,0.2546,0.2591,0.2606,0.2618,0.2672,0.2715,0.2769,0.2854,0.2918,0.3037,0.3094,0.3169,0.3244,0.3294,0.3347,0.331,0.3477,0.3423,0.3382,0.3377,0.3172,0.3144,0.3507,0.3507,0.3506,0.3506,0.3506,0,0.2521,0.2536,0.2599,0.2607,0.2647,0.2712,0.2784,0.2857,0.2979,0.3045,0.3132,0.3202,0.3297,0.3384,0.3402,0.3456,0.3522,0.3419,0.3415,0.3176,0.3148,0.34,0.3386,0.3511,0.351,0.3509,0.3508,0,0.2457,0.2491,0.2519,0.2596,0.2625,0.2665,0.2793,0.2849,0.2983,0.3093,0.3138,0.3281,0.3385,0.3458,0.3566,0.3535,0.358,0.3574,0.3291,0.325,0.3431,0.3417,0.3546,0.3544,0.3543,0.3542,0.3541,0,0.2413,0.2422,0.2502,0.2526,0.2559,0.264,0.2683,0.2829,0.2897,0.3112,0.3147,0.3314,0.3365,0.3514,0.3505,0.3541,0.359,0.3308,0.3171,0.3457,0.344,0.3428,0.3416,0.292,0.2914,0.2909,0.2905,0,0.2347,0.2379,0.2402,0.2461,0.2508,0.2558,0.2652,0.2694,0.2861,0.2951,0.3072,0.3151,0.3309,0.3226,0.3304,0.3277,0.3276,0.321,0.3607,0.2943,0.2875,0.2856,0.2863,0.2863,0.2867,0.287,0.2873,0.2874,0.2295,0.2293,0.2343,0.2383,0.2434,0.2461,0.246,0.2552,0.262,0.2719,0.2882,0.2922,0.3005,0.2971,0.2903,0.2863,0.3075,0.2929,0.294,0.2957,0.2854,0.2786,0.2739,0.2742,0.2745,0.2748,0.275,0,0.2238,0.2242,0.2276,0.2297,0.2302,0.2388,0.2414,0.237,0.237,0.2498,0.2576,0.2424,0.2413,0.2495,0.237,0.2387,0.2333,0.2286,0.2182,0.2228,0.2269,0.2124,0.1819,0.1816,0.1813,0.181,0,0,0.2194,0.2191,0.2205,0.2167,0.2194,0.2152,0.2139,0.2081,0.2105,0.206,0.2083,0.2305,0.2425,0.2081,0.2054,0.1905,0.204,0.1834,0.259,0.2513,0.2549,0.2662,0.2498,0,0,0,0,0]},{"header":{"parameterUnit":"m.s-1","parameterCategory":2,"la1":30.2991,"la2":30.254,"lo1":-89.0895,"lo2":-89.0444,"dy":0.0017,"dx":0.0017,"nx":28,"ny":28,"refTime":"2025-12-23T03:00:00:Z","depth":"2","parameterNumber":3,"parameterNumberName":"V-component_of_CURRENTS"},"data":[0,0,0,0,0,0,0,0,0,0,0,0,0,0,0,0,0,0,0,0,0,0,0,0,0,0,0,0,0,0,0,0,0,0,0,0,0,0,0,0,0,0,0,0,0,0,0,0,0,0,0,0,0,0,0,0,0,0,0.0184,0.0184,0,0.0139,0.0138,0.0137,0.0103,0.0103,0.0103,0.0103,0.0029,0.0028,0.0026,0,0,0,0,0,0,0,0,0,0,0,0,0,0.0196,0.0196,0.0184,0.0184,0.0183,0.0139,0.0138,0.0137,0.0103,0.0103,0.0103,0.0103,0.003,0.0028,0.0026,0,0,0,0,0,0,0,0,0,0,0,0,0,0.0173,0.0196,0.0184,0.0163,0.0161,0.0139,0.0138,0.0137,0.0104,0.0103,0.0103,0.0103,0.0031,0.0028,0.0025,0.0011,0,0,0.0017,0.0016,0,0,0,0,0,0,0,0,0.0174,0.0172,0.0166,0.0164,0.0162,0.0128,0.0115,0.0094,0.0104,0.0123,0.0103,0.0103,0.0061,0.0056,0.0045,0.0008,0.0005,0.0016,0.0015,0.0014,0.0013,0,0,0,0,0,0,0,0.0176,0.0174,0.0164,0.0166,0.0163,0.014,0.0137,0.0111,0.0092,0.0121,0.0119,0.0118,0.006,0.0048,0.0043,0.0004,0.0017,0.0014,0.0012,0.0011,-0.0049,-0.0049,0,0,0,0,0,0,0.0189,0.0176,0.0166,0.0163,0.017,0.014,0.0136,0.0138,0.0092,0.0086,0.0118,0.0116,0.0053,0.0047,0.0041,0.0037,0.0014,0.0011,0.0009,-0.0049,-0.0049,-0.0049,0,0,0,0,0,0,0.0189,0.0188,0.0167,0.017,0.0166,0.0141,0.0142,0.0137,0.0129,0.009,0.0083,0.0116,0.0053,0.0044,0.0023,0.0034,0.001,0.0007,-0.0049,-0.0049,-0.0049,0.002,0,0,0,0,0,0,0.019,0.0189,0.019,0.0171,0.0166,0.0163,0.0142,0.0136,0.0129,0.0126,0.0086,0.0079,0.0052,0.0027,0.002,0.0029,0.0005,-0.0049,-0.0049,-0.0049,0.0018,0.0023,0.0027,0,0,0,0,0,0.019,0.0199,0.019,0.0189,0.017,0.0164,0.0159,0.0139,0.0129,0.013,0.0102,0.008,0.0023,0.0025,0.0017,0.0025,-0.0049,-0.0049,-0.0049,0.0016,0.0022,0.0027,0,0,0,0,0,0,0.0204,0.0196,0.0186,0.0191,0.0181,0.0159,0.0157,0.0145,0.0123,0.0118,0.0082,0.0073,0.0057,0.0029,0.0033,0.0007,-0.0017,-0.0018,0.0035,0.004,0.0045,0.0064,0.0003,0,0,0,0,0,0.0208,0.0213,0.02,0.0203,0.02,0.0179,0.0172,0.0161,0.0141,0.0132,0.0104,0.0073,0.005,0.0037,0.0009,-0.0003,-0.0029,-0.0005,-0.0,0.0004,0.0012,-0.0018,-0.0015,-0.0048,-0.0048,-0.0048,0,0,0.0216,0.021,0.0214,0.0206,0.0194,0.0203,0.0174,0.0171,0.0177,0.0127,0.0121,0.0087,0.0049,0.0035,0.0026,0.0015,-0.0,0.0004,0.0008,0.0014,-0.0017,-0.0014,-0.0011,-0.0048,-0.0048,-0.0048,0,0,0.0239,0.0228,0.0241,0.0237,0.0227,0.0218,0.0222,0.0203,0.0192,0.0181,0.0148,0.0124,0.0085,0.0064,0.0048,0.006,0.0023,0.0048,0.0088,0.006,0.0062,0.0065,0.004,0.004,0.0052,0.0052,0.0052,0,0.0246,0.0263,0.0243,0.0255,0.0261,0.0232,0.0253,0.0239,0.0215,0.0212,0.0188,0.0137,0.0101,0.0094,0.0095,0.0072,0.0049,0.0075,0.0067,0.0069,0.007,0.0044,0.0043,0.0055,0.0055,0.0055,0.0054,0,0.0284,0.0294,0.0302,0.0311,0.0313,0.0325,0.0311,0.0306,0.0287,0.0272,0.0253,0.0201,0.0175,0.0156,0.0127,0.0122,0.0101,0.0077,0.0059,0.0078,0.0049,0.0046,0.006,0.0059,0.0058,0.0057,0,0,0.0309,0.0327,0.033,0.0348,0.0347,0.0357,0.0366,0.0371,0.0388,0.0342,0.0355,0.0298,0.0266,0.0245,0.0204,0.0174,0.0157,0.0133,0.013,0.012,0.0097,0.0071,0.0065,0.0131,0.0131,0.0131,0.0075,0,0.0345,0.0391,0.0386,0.043,0.0456,0.0437,0.0455,0.0451,0.0438,0.0439,0.0378,0.0368,0.0303,0.0292,0.0252,0.0186,0.0152,0.0174,0.0071,0.0068,0.0051,0.0062,0.0086,0.0037,0.0073,0.0072,0.0072,0,0.0386,0.0413,0.0467,0.0503,0.0513,0.053,0.0561,0.0577,0.0565,0.0551,0.0522,0.0473,0.0427,0.0364,0.0259,0.0277,0.0193,0.0131,0.0127,0.0078,0.0037,0.0021,0.003,0.0067,0.0067,0.0067,0.0068,0,0.0429,0.047,0.052,0.0532,0.0565,0.0581,0.0602,0.0609,0.0645,0.0627,0.0641,0.0566,0.0546,0.0428,0.0292,0.0276,0.0174,0.0134,0.0031,0.0028,0.0016,0.0012,0.0054,0.0054,0.0054,0.0054,0.0054,0,0.0476,0.0512,0.0543,0.057,0.0634,0.0636,0.0705,0.0708,0.0739,0.0803,0.0708,0.0728,0.0561,0.0478,0.0332,0.0182,0.0201,0.0043,0.0013,0.004,0.0039,0.0036,0.0035,0.0052,0.0053,0.0053,0.0053,0,0.0515,0.0535,0.0598,0.0641,0.0657,0.0708,0.0784,0.0842,0.0849,0.0928,0.0927,0.0862,0.075,0.0571,0.0393,0.0252,0.0096,0.0033,0.0078,0.0054,-0.0042,-0.004,-0.0087,-0.0088,-0.0089,-0.009,-0.0091,0,0.0543,0.0577,0.0652,0.0701,0.0721,0.0794,0.0855,0.0894,0.0973,0.1019,0.107,0.0979,0.0934,0.0653,0.039,0.0133,0.0095,-0.0019,-0.0056,-0.0032,-0.0056,-0.0052,-0.0048,-0.0044,-0.0045,-0.0045,-0.0045,0,0.0594,0.0618,0.0671,0.0773,0.0844,0.0942,0.1033,0.1109,0.1178,0.1227,0.1284,0.1244,0.0983,0.0727,0.0368,0.0192,0.002,-0.0034,-0.0013,-0.0013,0.0003,-0.0019,-0.0015,-0.0048,-0.0047,-0.0047,-0.0047,-0.0047,0.0629,0.0681,0.0754,0.0852,0.0947,0.1077,0.1167,0.1272,0.139,0.1475,0.1441,0.1378,0.1094,0.0628,0.0325,-0.0001,0.0007,-0.0112,-0.0109,-0.0106,-0.0092,-0.0078,-0.0142,-0.0142,-0.0142,-0.0142,-0.0143,0,0.0677,0.0734,0.0829,0.0952,0.1068,0.111,0.1279,0.1367,0.1504,0.1566,0.159,0.1304,0.1014,0.0677,0.0198,-0.0087,-0.0104,-0.0178,-0.0135,-0.013,-0.0127,-0.0112,-0.0169,-0.017,-0.0171,-0.0171,0,0,0.0704,0.0793,0.0844,0.1027,0.112,0.1278,0.138,0.1498,0.1576,0.1614,0.1579,0.1511,0.1109,0.0761,0.0376,0.0102,0.0051,0.0047,0.0098,0.0199,0.0207,-0.006,-0.0029,0,0,0,0,0]}],[{"header":{"parameterUnit":"m.s-1","parameterCategory":2,"la1":30.2991,"la2":30.254,"lo1":-89.0895,"lo2":-89.0444,"dy":0.0017,"dx":0.0017,"nx":28,"ny":28,"refTime":"2025-12-23T03:00:00:Z","depth":"4","parameterNumber":2,"parameterNumberName":"U-component_of_CURRENTS"},"data":[0,0,0,0,0,0,0,0,0,0,0,0,0,0,0,0,0,0,0,0,0,0,0,0,0,0,0,0,0,0,0,0,0,0,0,0,0,0,0,0,0,0,0,0,0,0,0,0,0,0,0,0,0,0,0,0,0,0,0.1462,0.1463,0,0.1541,0.1542,0.1543,0.1587,0.1587,0.1587,0.1587,0.1673,0.1675,0.1677,0,0,0,0,0,0,0,0,0,0,0,0,0,0.1366,0.1367,0.1462,0.1463,0.1464,0.1541,0.1542,0.1543,0.1587,0.1587,0.1587,0.1587,0.1672,0.1675,0.1677,0,0,0,0,0,0,0,0,0,0,0,0,0,0.1422,0.1368,0.1462,0.1495,0.1499,0.1541,0.1542,0.1543,0.1587,0.1587,0.1587,0.1587,0.1671,0.1674,0.1677,0.1693,0,0,0.1687,0.1689,0,0,0,0,0,0,0,0,0.1419,0.1426,0.1489,0.1493,0.1497,0.1554,0.1539,0.1594,0.1587,0.1553,0.1587,0.1588,0.1634,0.164,0.1654,0.1697,0.1701,0.1688,0.169,0.1691,0.1692,0,0,0,0,0,0,0,0.1415,0.1423,0.1493,0.149,0.1495,0.1512,0.152,0.155,0.1591,0.1556,0.156,0.1569,0.1636,0.1651,0.1656,0.1702,0.1687,0.169,0.1692,0.1694,0.1839,0.1841,0,0,0,0,0,0,0.1405,0.1419,0.1491,0.1495,0.1458,0.1513,0.1522,0.1536,0.1591,0.16,0.1568,0.157,0.1645,0.1653,0.166,0.1748,0.1691,0.1694,0.1696,0.1837,0.184,0.1842,0,0,0,0,0,0,0.1402,0.141,0.1487,0.1459,0.147,0.1515,0.1529,0.1537,0.1584,0.16,0.1609,0.161,0.1646,0.1655,0.1711,0.1749,0.1695,0.1698,0.1835,0.1838,0.1841,0.1882,0,0,0,0,0,0,0.1399,0.1409,0.1431,0.1458,0.1471,0.1527,0.1529,0.1539,0.1587,0.1591,0.1639,0.1645,0.1647,0.1706,0.1714,0.1752,0.1701,0.1832,0.1836,0.184,0.1878,0.1886,0.1892,0,0,0,0,0,0.1396,0.1413,0.1431,0.1441,0.1494,0.1528,0.1537,0.1569,0.1589,0.1612,0.1647,0.1645,0.1735,0.171,0.1719,0.1759,0.1831,0.1835,0.1839,0.1875,0.1884,0.1892,0,0,0,0,0,0,0.1378,0.1421,0.144,0.1471,0.1506,0.1536,0.1567,0.159,0.1638,0.1653,0.1668,0.1677,0.1742,0.1748,0.172,0.1813,0.1784,0.179,0.1808,0.1817,0.1824,0.1822,0.1703,0,0,0,0,0,0.1386,0.1419,0.1453,0.1484,0.1505,0.1546,0.1572,0.1595,0.1631,0.1655,0.1689,0.1727,0.1762,0.1787,0.1818,0.1869,0.1879,0.1902,0.1909,0.1915,0.1922,0.1966,0.1977,0.1856,0.1856,0.1856,0,0,0.1387,0.1418,0.1437,0.1485,0.152,0.1553,0.1563,0.1611,0.1646,0.1656,0.1728,0.1758,0.1783,0.1838,0.1867,0.185,0.1958,0.1921,0.1925,0.1929,0.1971,0.1983,0.1993,0.1859,0.1858,0.1858,0,0,0.1399,0.1439,0.1469,0.1502,0.1558,0.1581,0.1603,0.1655,0.1691,0.1753,0.1771,0.1823,0.1883,0.1904,0.1921,0.199,0.1996,0.2009,0.2044,0.2087,0.2097,0.2106,0.214,0.2151,0.2011,0.2011,0.2011,0,0.1405,0.1445,0.1483,0.1519,0.155,0.1598,0.1632,0.1673,0.1739,0.1773,0.1783,0.1889,0.1911,0.1972,0.1996,0.2005,0.203,0.2005,0.2095,0.2104,0.2112,0.2145,0.2157,0.2014,0.2013,0.2013,0.2013,0,0.1425,0.1474,0.1498,0.156,0.1594,0.1637,0.1686,0.1741,0.1792,0.1829,0.1917,0.1954,0.2014,0.2033,0.2037,0.2114,0.2113,0.2098,0.2068,0.2127,0.2158,0.217,0.2017,0.2016,0.2016,0.2015,0,0,0.1408,0.1494,0.1511,0.1545,0.1623,0.1648,0.1719,0.1785,0.1842,0.1911,0.1983,0.2049,0.2082,0.2104,0.2126,0.2164,0.2244,0.2164,0.2165,0.2188,0.2346,0.2197,0.2195,0.225,0.2253,0.2254,0.2345,0,0.1424,0.1482,0.1529,0.1597,0.1629,0.1696,0.1754,0.1822,0.1892,0.1974,0.2029,0.2109,0.2105,0.2154,0.219,0.2239,0.2278,0.2221,0.2293,0.2296,0.2148,0.2204,0.2262,0.2354,0.2357,0.2359,0.236,0,0.143,0.1473,0.1528,0.1616,0.164,0.1692,0.1795,0.1853,0.1967,0.2027,0.2112,0.2164,0.2251,0.2235,0.2338,0.2308,0.2334,0.2357,0.2361,0.2213,0.2168,0.2283,0.2381,0.2379,0.2378,0.2376,0.2375,0,0.1378,0.1475,0.1517,0.1546,0.1646,0.1702,0.1769,0.1878,0.194,0.208,0.2145,0.2242,0.2315,0.2365,0.2419,0.2397,0.2516,0.2485,0.2373,0.2364,0.2451,0.2441,0.2551,0.2551,0.255,0.255,0.255,0,0.1357,0.1403,0.1506,0.153,0.16,0.1683,0.1777,0.1862,0.1988,0.2057,0.2177,0.2245,0.2356,0.2431,0.2454,0.2449,0.2548,0.2389,0.2378,0.2468,0.2458,0.246,0.2448,0.2553,0.2553,0.2552,0.2551,0,0.1291,0.1357,0.1415,0.1532,0.1575,0.1627,0.1776,0.1835,0.1976,0.2074,0.2127,0.2282,0.2377,0.2459,0.2554,0.2485,0.2503,0.2476,0.2582,0.2575,0.2314,0.2304,0.2354,0.2349,0.2345,0.2342,0.234,0,0.1255,0.1278,0.1398,0.1432,0.1497,0.1595,0.1656,0.1812,0.1875,0.2069,0.2099,0.2257,0.2337,0.2358,0.245,0.2487,0.2456,0.2445,0.2357,0.231,0.2295,0.2291,0.2286,0.2334,0.2333,0.2332,0.2331,0,0.1193,0.1247,0.1292,0.1362,0.1435,0.1496,0.1606,0.1642,0.1807,0.1952,0.2031,0.2094,0.2196,0.2266,0.2318,0.2334,0.2438,0.2404,0.2411,0.2328,0.2286,0.2274,0.2274,0.2317,0.2319,0.2321,0.2321,0,0.1152,0.1162,0.1226,0.1281,0.1352,0.1376,0.1448,0.1531,0.1615,0.183,0.1852,0.202,0.2167,0.2189,0.2234,0.2243,0.2202,0.2116,0.2137,0.2153,0.2044,0.1958,0.1887,0,0,0,0,0,0.1106,0.1107,0.1141,0.1183,0.1242,0.1289,0.1399,0.1474,0.164,0.1645,0.1745,0.1831,0.1912,0.2008,0.1978,0.2142,0.2206,0.2096,0.2115,0.2244,0.226,0.2148,0,0,0,0,0,0,0.1068,0.1101,0.1106,0.109,0.1101,0.1154,0.1219,0.1326,0.1346,0.1522,0.1585,0.1716,0.1832,0.1914,0.1944,0.1969,0.1941,0.2205,0.2199,0.2236,0.2249,0.2262,0.2153,0,0,0,0,0]},{"header":{"parameterUnit":"m.s-1","parameterCategory":2,"la1":30.2991,"la2":30.254,"lo1":-89.0895,"lo2":-89.0444,"dy":0.0017,"dx":0.0017,"nx":28,"ny":28,"refTime":"2025-12-23T03:00:00:Z","depth":"4","parameterNumber":3,"parameterNumberName":"V-component_of_CURRENTS"},"data":[0,0,0,0,0,0,0,0,0,0,0,0,0,0,0,0,0,0,0,0,0,0,0,0,0,0,0,0,0,0,0,0,0,0,0,0,0,0,0,0,0,0,0,0,0,0,0,0,0,0,0,0,0,0,0,0,0,0,0.0203,0.0202,0,0.0175,0.0175,0.0175,0.0159,0.0159,0.0159,0.0159,0.0108,0.0106,0.0105,0,0,0,0,0,0,0,0,0,0,0,0,0,0.0211,0.0211,0.0203,0.0202,0.0202,0.0176,0.0175,0.0175,0.0159,0.0159,0.0159,0.0159,0.0108,0.0106,0.0105,0,0,0,0,0,0,0,0,0,0,0,0,0,0.0197,0.0211,0.0203,0.0192,0.0191,0.0176,0.0175,0.0174,0.0159,0.0159,0.0159,0.0159,0.0109,0.0107,0.0105,0.009,0,0,0.0098,0.0097,0,0,0,0,0,0,0,0,0.0198,0.0197,0.0194,0.0193,0.0191,0.0172,0.0159,0.0145,0.0159,0.017,0.0159,0.016,0.0127,0.0124,0.0117,0.0088,0.0086,0.0098,0.0097,0.0096,0.0095,0,0,0,0,0,0,0,0.0199,0.0197,0.0191,0.0194,0.0192,0.0178,0.0177,0.0156,0.0148,0.0169,0.0168,0.0167,0.0126,0.012,0.0116,0.0085,0.0098,0.0096,0.0095,0.0094,0.0047,0.0047,0,0,0,0,0,0,0.0206,0.0199,0.0192,0.019,0.0196,0.0178,0.0176,0.0177,0.0148,0.0144,0.0167,0.0166,0.0123,0.0119,0.0114,0.0113,0.0096,0.0094,0.0093,0.0047,0.0047,0.0047,0,0,0,0,0,0,0.0206,0.0205,0.0193,0.0194,0.0192,0.0178,0.0179,0.0177,0.0174,0.0147,0.0142,0.0168,0.0123,0.0117,0.0103,0.011,0.0093,0.0091,0.0047,0.0047,0.0047,0.0099,0,0,0,0,0,0,0.0206,0.0206,0.0209,0.0195,0.0192,0.0189,0.0179,0.0176,0.0173,0.0172,0.0146,0.0141,0.0123,0.0106,0.0101,0.0107,0.0089,0.0047,0.0047,0.0047,0.0097,0.0101,0.0104,0,0,0,0,0,0.0207,0.0214,0.0209,0.0208,0.0197,0.019,0.0187,0.0176,0.0173,0.0174,0.0158,0.0142,0.0103,0.0105,0.0098,0.0104,0.0047,0.0047,0.0047,0.0096,0.01,0.0104,0,0,0,0,0,0,0.0216,0.0213,0.0207,0.0212,0.0203,0.0187,0.0188,0.018,0.0168,0.0169,0.0143,0.0137,0.0127,0.0106,0.0109,0.0089,0.0072,0.007,0.0111,0.0114,0.0118,0.013,0.0087,0,0,0,0,0,0.0221,0.0227,0.0216,0.0219,0.0217,0.0203,0.0199,0.0193,0.0181,0.0176,0.0158,0.0137,0.012,0.0111,0.0092,0.0081,0.0054,0.0079,0.0082,0.0085,0.009,0.0055,0.0056,0.0047,0.0047,0.0047,0,0,0.0227,0.0224,0.0228,0.0222,0.0214,0.0219,0.0201,0.02,0.0205,0.0171,0.0171,0.0148,0.012,0.0111,0.0104,0.0095,0.0073,0.0085,0.0089,0.0091,0.0056,0.0056,0.0057,0.0047,0.0047,0.0047,0,0,0.0242,0.0238,0.0249,0.0245,0.0239,0.0232,0.0235,0.0223,0.0219,0.0212,0.0192,0.0175,0.0147,0.0132,0.0119,0.0127,0.0091,0.0118,0.0146,0.0112,0.0113,0.0113,0.0078,0.0075,0.012,0.012,0.012,0,0.0249,0.0262,0.0249,0.0257,0.0263,0.0242,0.0257,0.0248,0.0234,0.0233,0.0219,0.0183,0.0158,0.0149,0.0152,0.0135,0.0109,0.0136,0.0118,0.0117,0.0116,0.008,0.0076,0.0123,0.0123,0.0122,0.0122,0,0.0272,0.0283,0.0289,0.0296,0.0298,0.0307,0.0298,0.0297,0.0288,0.0277,0.0264,0.0227,0.0208,0.0194,0.0176,0.0162,0.0142,0.0127,0.0111,0.0121,0.0082,0.0076,0.0126,0.0126,0.0125,0.0124,0,0,0.0287,0.0304,0.0307,0.0324,0.0323,0.033,0.0338,0.0342,0.0354,0.0324,0.033,0.0293,0.0271,0.0255,0.0225,0.0193,0.0164,0.0162,0.0159,0.0134,0.0086,0.0071,0.0063,0.0144,0.0144,0.0143,0.0061,0,0.031,0.0344,0.0344,0.0378,0.0397,0.0388,0.04,0.0398,0.039,0.0387,0.0343,0.0336,0.0294,0.0289,0.025,0.0188,0.0152,0.0187,0.0075,0.0072,0.0062,0.0058,0.0142,0.0057,0.0055,0.0054,0.0054,0,0.0334,0.0356,0.0398,0.0431,0.0438,0.0454,0.0478,0.0489,0.0475,0.0466,0.0443,0.0406,0.0363,0.0325,0.0219,0.0243,0.0171,0.0115,0.011,0.0075,0.0047,0.0043,0.0043,0.0044,0.0045,0.0046,0.0046,0,0.0358,0.0395,0.0435,0.0446,0.0475,0.0494,0.0511,0.0513,0.0539,0.0521,0.0527,0.0462,0.0438,0.0338,0.0221,0.022,0.0096,0.0078,-0.0006,-0.0009,0.0008,0.0008,-0.0001,-0.0001,-0.0,-0.0,0.0,0,0.0384,0.0416,0.0453,0.0475,0.0529,0.0534,0.0587,0.059,0.0607,0.0639,0.0575,0.0572,0.044,0.0353,0.0237,0.0099,0.0105,-0.0003,-0.0031,0.003,0.0035,0.0003,0.0005,-0.0003,-0.0003,-0.0002,-0.0001,0,0.0402,0.0425,0.0478,0.0523,0.0544,0.0584,0.0651,0.0688,0.0691,0.0729,0.0727,0.0658,0.0541,0.0395,0.0231,0.0131,-0.0006,-0.0057,0.0019,-0.0002,-0.0094,-0.0088,-0.0159,-0.016,-0.0161,-0.0162,-0.0163,0,0.0414,0.0442,0.0517,0.056,0.0585,0.065,0.0697,0.073,0.0775,0.0779,0.0796,0.0701,0.0631,0.0392,0.0229,0.0,-0.0034,-0.0107,-0.0104,-0.009,-0.011,-0.0103,-0.0097,-0.0164,-0.0165,-0.0165,-0.0165,0,0.0437,0.0465,0.051,0.0598,0.0661,0.074,0.0808,0.0847,0.0882,0.0884,0.0855,0.0728,0.0592,0.0399,0.022,0.0055,-0.0061,-0.0119,-0.0118,-0.0116,-0.0098,-0.0115,-0.0107,-0.0169,-0.0168,-0.0168,-0.0168,0,0.0453,0.0489,0.0552,0.063,0.0715,0.0799,0.0839,0.0884,0.0924,0.0924,0.091,0.0757,0.0674,0.0426,0.0262,0.0097,0.0051,-0.0005,-0.0011,-0.0009,0.0054,0.01,0.0067,0,0,0,0,0,0.0466,0.0507,0.058,0.0666,0.0752,0.0808,0.0897,0.093,0.096,0.095,0.0935,0.0806,0.056,0.0455,0.0288,0.0227,0.0012,0.0023,-0.0056,-0.0189,-0.0184,-0.0138,0,0,0,0,0,0,0.0473,0.0537,0.0575,0.0682,0.0746,0.0847,0.091,0.0937,0.0934,0.0935,0.0812,0.0752,0.0517,0.0653,0.028,0.0229,0.0153,-0.0089,-0.0093,-0.0191,-0.0187,-0.0184,-0.0135,0,0,0,0,0]}]]